Location: *
(32.8140°S, 174.6161°E)
Time: 00:36:28
(UTC+00:00)

Cosmos 2333 Rocket - Pass Details

Date: 10 December 2019
Orbit: 837 x 865 km, 70.8° (Epoch: 17 January)

Event Time Altitude Azimuth Distance (km) Brightness Sun altitude
Exits shadow 16:32:18 - 340° (NNW) 3,311 4.8 -7.0°
Reaches altitude 10° 16:34:29 10° 340° (NNW) 2,472 4.2 -6.6°
Maximum altitude 16:40:11 88° 250° (WSW) 858 2.3 -5.6°
Drops below altitude 10° 16:45:55 10° 160° (SSE) 2,484 5.5 -4.6°
Sets 16:48:22 0° 159° (SSE) 3,423 6.3 -4.1°
